Date String (YYYY-MM-DD hh:mm:ss) UTC,Instrument flags,Ambient pressure (hPa),Sample flow (lpm),Bypass flow (lpm),Sample temperature (°C),Ambient temperature (°C),ASC tube jacket temperature (°C),LED temperature (°C),Box temperature (°C),Sample RH (%),Span deviation,Mass concentration (μg/m³),Mass concentration (μg/m³),Mass concentration (μg/m³)
DateTimeUTC,F1_M11,P_M11,Q1_M11,Q2_M11,T1_M11,T2_M11,T3_M11,T4_M11,T5_M11,U1_M11,ZSPAN_M11,X2_M11,X0_M11,X1_M11
2021-09-14 09:00:00,,0829.1,5.00,0.00,29.5,28.8,00.0,38.7,31.2,23.4,0000.0,0004.33,0013.50,0003.59
2021-09-14 09:01:00,,0828.9,5.00,0.00,29.5,28.8,00.0,38.7,31.2,23.6,0000.0,0004.29,0012.61,0003.57
2021-09-14 09:02:00,,0828.6,5.00,0.00,29.5,28.8,00.0,38.7,31.2,23.6,0000.0,0004.26,0013.20,0003.56
2021-09-14 09:03:00,,0828.5,5.00,0.00,29.5,28.8,00.0,38.7,31.2,23.6,0000.0,0004.30,0014.68,0003.54
2021-09-14 09:04:00,,0828.5,4.99,0.00,29.5,28.8,00.0,38.7,31.2,23.7,0000.0,0004.34,0015.60,0003.52
2021-09-14 09:05:00,,0828.5,5.00,0.00,29.5,28.8,00.0,38.7,31.2,23.8,0000.0,0004.39,0015.88,0003.52
2021-09-14 09:06:00,,0828.5,5.01,0.00,29.5,28.8,00.0,38.7,31.2,23.8,0000.0,0004.42,0016.31,0003.52
2021-09-14 09:07:00,,0828.5,5.00,0.00,29.5,28.8,00.0,38.7,31.2,23.8,0000.0,0004.40,0015.31,0003.52
2021-09-14 09:08:00,,0828.5,5.01,0.00,29.5,28.8,00.0,38.7,31.2,23.8,0000.0,0004.44,0015.08,0003.51
2021-09-14 09:09:00,,0828.5,4.99,0.00,29.5,28.8,00.0,38.7,31.2,23.8,0000.0,0004.48,0015.61,0003.50
2021-09-14 09:10:00,,0828.5,5.01,0.00,29.5,28.8,00.0,38.7,31.2,23.8,0000.0,0004.49,0014.85,0003.50
2021-09-14 09:11:00,,0828.5,5.00,0.00,29.5,28.8,00.0,38.7,31.2,23.7,0000.0,0004.50,0013.89,0003.49
2021-09-14 09:12:00,,0828.4,4.99,0.00,29.5,28.8,00.0,38.7,31.2,23.7,0000.0,0004.57,0013.79,0003.49
2021-09-14 09:13:00,,0828.5,4.99,0.00,29.5,28.8,00.0,38.7,31.2,23.7,0000.0,0004.61,0014.00,0003.49
2021-09-14 09:14:00,,0828.5,5.00,0.00,29.5,28.8,00.0,38.7,31.2,23.7,0000.0,0004.55,0012.90,0003.48
2021-09-14 09:15:00,,0828.4,5.00,0.00,29.5,28.8,00.0,38.7,31.2,23.6,0000.0,0004.50,0012.09,0003.47
2021-09-14 09:16:00,,0828.4,5.01,0.00,29.5,28.8,00.0,38.7,31.2,23.6,0000.0,0004.54,0012.35,0003.47
2021-09-14 09:17:00,,0828.4,5.00,0.00,29.5,28.8,00.0,38.7,31.2,23.6,0000.0,0004.51,0012.11,0003.46
2021-09-14 09:18:00,,0828.3,5.00,0.00,29.5,28.8,00.0,38.7,31.2,23.6,0000.0,0004.54,0012.34,0003.45
2021-09-14 09:19:00,,0828.3,4.99,0.00,29.5,28.8,00.0,38.7,31.2,23.5,0000.0,0004.53,0012.90,0003.45
2021-09-14 09:20:00,,0828.3,5.00,0.00,29.5,28.8,00.0,38.7,31.2,23.5,0000.0,0004.51,0013.01,0003.45
2021-09-14 09:21:00,,0828.3,5.00,0.00,29.5,28.8,00.0,38.7,31.2,23.4,0000.0,0004.50,0013.73,0003.45
2021-09-14 09:22:00,,0828.3,4.99,0.00,29.5,28.8,00.0,38.7,31.2,23.4,0000.0,0004.49,0014.43,0003.46
2021-09-14 09:23:00,,0828.3,4.99,0.00,29.5,28.8,00.0,38.7,31.2,23.4,0000.0,0004.48,0014.57,0003.47
2021-09-14 09:24:00,,0828.3,5.01,0.00,29.5,28.8,00.0,38.7,31.2,23.4,0000.0,0004.49,0013.96,0003.47
2021-09-14 09:25:00,,0828.3,5.00,0.00,29.5,28.8,00.0,38.7,31.2,23.4,0000.0,0004.54,0013.83,0003.49
2021-09-14 09:26:00,,0828.3,5.00,0.00,29.5,28.8,00.0,38.7,31.2,23.4,0000.0,0004.61,0013.88,0003.51
2021-09-14 09:27:00,,0828.3,4.99,0.00,29.5,28.8,00.0,38.7,31.2,23.4,0000.0,0004.58,0013.33,0003.52
2021-09-14 09:28:00,,0828.3,5.00,0.00,29.5,28.8,00.0,38.7,31.2,23.4,0000.0,0004.58,0012.96,0003.52
2021-09-14 09:29:00,,0828.3,5.00,0.00,29.5,28.8,00.0,38.7,31.2,23.4,0000.0,0004.60,0012.87,0003.53
2021-09-14 09:30:00,,0828.3,5.00,0.00,29.5,28.8,00.0,38.7,31.2,23.4,0000.0,0004.60,0012.52,0003.54
2021-09-14 09:31:00,,0828.3,4.99,0.00,29.5,28.8,00.0,38.7,31.2,23.4,0000.0,0004.57,0012.05,0003.56
2021-09-14 09:32:00,,0828.3,5.01,0.00,29.5,28.8,00.0,38.7,31.2,23.4,0000.0,0004.53,0011.30,0003.56
2021-09-14 09:33:00,,0828.3,5.01,0.00,29.5,28.8,00.0,38.7,31.2,23.4,0000.0,0004.53,0011.23,0003.57
2021-09-14 09:34:00,,0828.3,5.00,0.00,29.5,28.8,00.0,38.7,31.2,23.4,0000.0,0004.52,0011.17,0003.57
2021-09-14 09:35:00,,0828.2,4.99,0.00,29.5,28.8,00.0,38.7,31.2,23.4,0000.0,0004.49,0011.11,0003.57
2021-09-14 09:36:00,,0828.2,4.99,0.00,29.5,28.7,00.0,38.7,31.2,23.4,0000.0,0004.50,0011.09,0003.58
2021-09-14 09:37:00,,0828.3,5.01,0.00,29.5,28.8,00.0,38.7,31.1,23.4,0000.0,0004.48,0011.08,0003.58
2021-09-14 09:38:00,,0828.2,5.00,0.00,29.5,28.8,00.0,38.7,31.1,23.4,0000.0,0004.46,0011.92,0003.57
2021-09-14 09:39:00,,0828.2,5.00,0.00,29.4,28.8,00.0,38.7,31.1,23.4,0000.0,0004.44,0011.91,0003.58
2021-09-14 09:40:00,,0828.3,5.01,0.00,29.4,28.8,00.0,38.7,31.1,23.4,0000.0,0004.45,0012.55,0003.58
2021-09-14 09:41:00,,0828.3,5.00,0.00,29.4,28.8,00.0,38.7,31.1,23.5,0000.0,0004.43,0012.32,0003.57
2021-09-14 09:42:00,,0828.3,5.01,0.00,29.4,28.7,00.0,38.7,31.1,23.5,0000.0,0004.46,0012.42,0003.57
2021-09-14 09:43:00,,0828.3,5.00,0.00,29.4,28.8,00.0,38.7,31.1,23.4,0000.0,0004.49,0012.48,0003.57
2021-09-14 09:44:00,,0828.3,5.00,0.00,29.4,28.8,00.0,38.7,31.1,23.5,0000.0,0004.54,0012.20,0003.58
2021-09-14 09:45:00,,0828.3,4.99,0.00,29.4,28.7,00.0,38.7,31.1,23.5,0000.0,0004.55,0011.76,0003.57
2021-09-14 09:46:00,,0828.3,4.99,0.00,29.4,28.7,00.0,38.7,31.1,23.4,0000.0,0004.55,0011.87,0003.56
2021-09-14 09:47:00,,0828.3,5.00,0.00,29.4,28.7,00.0,38.6,31.1,23.4,0000.0,0004.54,0012.20,0003.56
2021-09-14 09:48:00,,0828.3,5.01,0.00,29.4,28.7,00.0,38.6,31.2,23.4,0000.0,0004.51,0012.65,0003.55
2021-09-14 09:49:00,,0828.3,4.99,0.00,29.4,28.7,00.0,38.6,31.1,23.4,0000.0,0004.51,0011.76,0003.56
2021-09-14 09:50:00,,0828.4,5.00,0.00,29.4,28.7,00.0,38.6,31.1,23.4,0000.0,0004.49,0011.63,0003.56
2021-09-14 09:51:00,,0828.4,4.99,0.00,29.4,28.7,00.0,38.6,31.1,23.4,0000.0,0004.47,0011.11,0003.55
2021-09-14 09:52:00,,0828.5,5.01,0.00,29.4,28.7,00.0,38.6,31.1,23.4,0000.0,0004.47,0011.63,0003.55
2021-09-14 09:53:00,,0828.5,5.00,0.00,29.4,28.8,00.0,38.6,31.1,23.5,0000.0,0004.48,0011.08,0003.55
2021-09-14 09:54:00,,0828.5,5.00,0.00,29.4,28.8,00.0,38.6,31.1,23.5,0000.0,0004.48,0011.67,0003.55
2021-09-14 09:55:00,,0828.6,4.99,0.00,29.4,28.8,00.0,38.6,31.1,23.6,0000.0,0004.48,0011.75,0003.55
2021-09-14 09:56:00,,0828.9,5.00,0.00,29.5,28.8,00.0,38.6,31.1,23.6,0000.0,0004.49,0011.80,0003.55
2021-09-14 09:57:00,,0829.1,5.01,0.00,29.5,28.8,00.0,38.6,31.2,23.6,0000.0,0004.51,0012.18,0003.55
2021-09-14 09:58:00,,0829.0,5.00,0.00,29.5,28.8,00.0,38.6,31.2,23.6,0000.0,0004.51,0013.07,0003.56
2021-09-14 09:59:00,,0829.1,5.00,0.00,29.5,28.7,00.0,38.7,31.2,23.5,0000.0,0004.53,0012.67,0003.57
